Time,TemperatureF,DewpointF,PressureIn,WindDirection,WindDirectionDegrees,WindSpeedMPH,WindSpeedGustMPH,Humidity,HourlyPrecipIn,Conditions,Clouds,dailyrainin,SoftwareType,DateUTC
2013-02-05 00:00:00,5.9,3.1,30.08,NNW,343,0.0,0.0,88,0.00,,,0.00,Wunderground v.1.15,2013-02-05 06:00:00,
2013-02-05 00:05:00,6.8,4.2,30.07,NNW,343,0.0,0.0,89,0.00,,,0.00,Wunderground v.1.15,2013-02-05 06:05:00,
2013-02-05 00:15:00,7.9,5.3,30.07,NNW,342,0.0,0.0,89,0.00,,,0.00,Wunderground v.1.15,2013-02-05 06:15:00,
2013-02-05 00:20:00,8.2,5.4,30.08,NNW,343,0.0,0.0,88,0.00,,,0.00,Wunderground v.1.15,2013-02-05 06:20:00,
2013-02-05 00:30:00,8.3,5.5,30.08,NNW,343,0.0,0.0,88,0.00,,,0.00,Wunderground v.1.15,2013-02-05 06:30:00,
2013-02-05 00:35:00,7.9,4.8,30.08,NNW,343,0.0,0.0,87,0.00,,,0.00,Wunderground v.1.15,2013-02-05 06:35:00,
2013-02-05 00:40:00,7.7,4.6,30.08,NNW,343,0.0,0.0,87,0.00,,,0.00,Wunderground v.1.15,2013-02-05 06:40:00,
2013-02-05 00:45:00,7.5,4.4,30.09,NNW,342,0.0,0.0,87,0.00,,,0.00,Wunderground v.1.15,2013-02-05 06:45:00,
2013-02-05 00:55:00,7.3,4.2,30.09,NNW,342,0.0,0.0,87,0.00,,,0.00,Wunderground v.1.15,2013-02-05 06:55:00,
2013-02-05 01:00:00,7.3,4.2,30.09,NNW,343,0.0,0.0,87,0.00,,,0.00,Wunderground v.1.15,2013-02-05 07:00:00,
2013-02-05 01:05:00,7.2,4.1,30.08,NNW,343,0.0,0.0,87,0.00,,,0.00,Wunderground v.1.15,2013-02-05 07:05:00,
2013-02-05 01:15:00,6.9,3.8,30.08,NNW,342,0.0,0.0,87,0.00,,,0.00,Wunderground v.1.15,2013-02-05 07:15:00,
2013-02-05 01:20:00,6.8,3.8,30.07,NNW,343,0.0,0.0,87,0.00,,,0.00,Wunderground v.1.15,2013-02-05 07:20:00,
2013-02-05 01:25:00,6.6,3.6,30.07,NNW,343,0.0,0.0,87,0.00,,,0.00,Wunderground v.1.15,2013-02-05 07:25:00,
2013-02-05 01:30:00,6.4,3.4,30.06,NNW,342,0.0,0.0,87,0.00,,,0.00,Wunderground v.1.15,2013-02-05 07:30:00,
2013-02-05 01:35:00,6.3,3.3,30.06,NNW,343,0.0,0.0,87,0.00,,,0.00,Wunderground v.1.15,2013-02-05 07:35:00,
2013-02-05 01:45:00,6.5,3.5,30.07,NNW,342,0.0,0.0,87,0.00,,,0.00,Wunderground v.1.15,2013-02-05 07:45:00,
2013-02-05 01:50:00,6.7,3.7,30.07,NNW,342,0.0,0.0,87,0.00,,,0.00,Wunderground v.1.15,2013-02-05 07:50:00,
2013-02-05 01:55:00,6.8,4.0,30.06,NNW,342,0.0,0.0,88,0.00,,,0.00,Wunderground v.1.15,2013-02-05 07:55:00,
2013-02-05 02:00:00,7.1,4.3,30.06,NNW,343,0.0,0.0,88,0.00,,,0.00,Wunderground v.1.15,2013-02-05 08:00:00,
2013-02-05 02:05:00,7.2,4.4,30.06,NNW,343,0.0,0.0,88,0.00,,,0.00,Wunderground v.1.15,2013-02-05 08:05:00,
2013-02-05 02:15:00,7.2,4.4,30.06,NNW,343,0.0,0.0,88,0.00,,,0.00,Wunderground v.1.15,2013-02-05 08:15:00,
2013-02-05 02:20:00,7.1,4.3,30.07,NNW,342,0.0,0.0,88,0.00,,,0.00,Wunderground v.1.15,2013-02-05 08:20:00,
2013-02-05 02:25:00,7.0,3.9,30.06,NNW,343,0.0,0.0,87,0.00,,,0.00,Wunderground v.1.15,2013-02-05 08:25:00,
2013-02-05 02:35:00,6.8,3.8,30.05,NNW,343,0.0,0.0,87,0.00,,,0.00,Wunderground v.1.15,2013-02-05 08:35:00,
2013-02-05 02:40:00,6.5,3.5,30.05,NNW,343,0.0,0.0,87,0.00,,,0.00,Wunderground v.1.15,2013-02-05 08:40:00,
2013-02-05 02:45:00,6.3,3.3,30.04,NNW,343,0.0,0.0,87,0.00,,,0.00,Wunderground v.1.15,2013-02-05 08:45:00,
2013-02-05 02:55:00,6.3,3.3,30.05,NNW,343,0.0,0.0,87,0.00,,,0.00,Wunderground v.1.15,2013-02-05 08:55:00,
2013-02-05 03:00:00,6.4,3.6,30.04,NNW,342,0.0,0.0,88,0.00,,,0.00,Wunderground v.1.15,2013-02-05 09:00:00,
2013-02-05 03:05:00,6.7,3.9,30.04,NNW,343,0.0,0.0,88,0.00,,,0.00,Wunderground v.1.15,2013-02-05 09:05:00,
2013-02-05 03:15:00,7.5,4.7,30.04,NNW,343,0.0,0.0,88,0.00,,,0.00,Wunderground v.1.15,2013-02-05 09:15:00,
2013-02-05 03:20:00,7.8,5.0,30.05,NNW,343,0.0,0.0,88,0.00,,,0.00,Wunderground v.1.15,2013-02-05 09:20:00,
2013-02-05 03:25:00,8.4,5.6,30.05,NNW,342,0.0,0.0,88,0.00,,,0.00,Wunderground v.1.15,2013-02-05 09:25:00,
2013-02-05 03:30:00,8.9,6.1,30.05,NNW,343,0.0,0.0,88,0.00,,,0.00,Wunderground v.1.15,2013-02-05 09:30:00,
2013-02-05 03:40:00,9.6,6.8,30.05,NNW,342,0.0,0.0,88,0.00,,,0.00,Wunderground v.1.15,2013-02-05 09:40:00,
2013-02-05 03:45:00,10.1,7.3,30.04,NNW,343,0.0,0.0,88,0.00,,,0.00,Wunderground v.1.15,2013-02-05 09:45:00,
2013-02-05 03:55:00,11.0,8.1,30.04,NNW,343,0.0,0.0,88,0.00,,,0.00,Wunderground v.1.15,2013-02-05 09:55:00,
2013-02-05 04:00:00,11.4,8.3,30.04,ESE,114,0.0,1.0,87,0.00,,,0.00,Wunderground v.1.15,2013-02-05 10:00:00,
2013-02-05 04:05:00,11.8,8.7,30.04,SE,133,1.0,1.0,87,0.00,,,0.00,Wunderground v.1.15,2013-02-05 10:05:00,
2013-02-05 04:15:00,12.1,8.5,30.03,SE,146,1.0,2.0,85,0.00,,,0.00,Wunderground v.1.15,2013-02-05 10:15:00,
2013-02-05 04:20:00,12.2,8.6,30.03,South,173,2.0,5.0,85,0.00,,,0.00,Wunderground v.1.15,2013-02-05 10:20:00,
2013-02-05 04:30:00,12.3,8.7,30.02,SSE,162,3.0,3.0,85,0.00,,,0.00,Wunderground v.1.15,2013-02-05 10:30:00,
2013-02-05 04:35:00,12.3,8.9,30.02,SSE,153,3.0,5.0,86,0.00,,,0.00,Wunderground v.1.15,2013-02-05 10:35:00,
2013-02-05 04:40:00,12.4,9.0,30.02,SSE,155,3.0,3.0,86,0.00,,,0.00,Wunderground v.1.15,2013-02-05 10:40:00,
2013-02-05 04:45:00,12.5,9.1,30.01,SSE,149,3.0,4.0,86,0.00,,,0.00,Wunderground v.1.15,2013-02-05 10:45:00,
2013-02-05 04:55:00,13.0,9.9,30.01,SE,142,5.0,5.0,87,0.00,,,0.00,Wunderground v.1.15,2013-02-05 10:55:00,
2013-02-05 05:00:00,13.2,10.3,30.00,SSE,151,5.0,5.0,88,0.00,,,0.00,Wunderground v.1.15,2013-02-05 11:00:00,
2013-02-05 05:05:00,13.5,10.6,30.00,SE,146,5.0,5.0,88,0.00,,,0.00,Wunderground v.1.15,2013-02-05 11:05:00,
2013-02-05 05:15:00,13.9,11.3,30.00,SE,145,3.0,5.0,89,0.00,,,0.00,Wunderground v.1.15,2013-02-05 11:15:00,
2013-02-05 05:20:00,14.1,11.5,30.00,SSE,150,3.0,3.0,89,0.00,,,0.00,Wunderground v.1.15,2013-02-05 11:20:00,
2013-02-05 05:25:00,14.3,11.7,30.01,SSE,163,4.0,4.0,89,0.00,,,0.00,Wunderground v.1.15,2013-02-05 11:25:00,
2013-02-05 05:30:00,14.4,11.8,30.01,SSE,157,3.0,4.0,89,0.00,,,0.00,Wunderground v.1.15,2013-02-05 11:30:00,
2013-02-05 05:40:00,14.7,12.0,30.00,SE,136,1.0,2.0,89,0.00,,,0.00,Wunderground v.1.15,2013-02-05 11:40:00,
2013-02-05 05:45:00,14.8,12.1,30.00,SSE,159,1.0,2.0,89,0.00,,,0.00,Wunderground v.1.15,2013-02-05 11:45:00,
2013-02-05 05:50:00,14.8,12.1,30.01,SSE,155,2.0,2.0,89,0.00,,,0.00,Wunderground v.1.15,2013-02-05 11:50:00,
2013-02-05 05:55:00,14.8,12.1,30.01,SSE,155,1.0,2.0,89,0.00,,,0.00,Wunderground v.1.15,2013-02-05 11:55:00,
2013-02-05 06:00:00,14.8,12.1,30.01,SSE,155,0.0,0.0,89,0.00,,,0.00,Wunderground v.1.15,2013-02-05 12:00:00,
2013-02-05 06:05:00,14.7,12.0,30.01,SSE,155,0.0,1.0,89,0.00,,,0.00,Wunderground v.1.15,2013-02-05 12:05:00,
2013-02-05 06:15:00,14.5,11.9,29.99,SSE,155,0.0,0.0,89,0.00,,,0.00,Wunderground v.1.15,2013-02-05 12:15:00,
2013-02-05 06:25:00,14.8,12.1,29.99,SSE,167,1.0,1.0,89,0.00,,,0.00,Wunderground v.1.15,2013-02-05 12:25:00,
2013-02-05 06:30:00,14.9,12.2,29.98,SE,146,2.0,4.0,89,0.00,,,0.00,Wunderground v.1.15,2013-02-05 12:30:00,
2013-02-05 06:35:00,15.0,12.6,29.98,SSE,163,3.0,4.0,90,0.00,,,0.00,Wunderground v.1.15,2013-02-05 12:35:00,
2013-02-05 06:45:00,15.4,13.0,29.98,SSE,158,4.0,7.0,90,0.00,,,0.00,Wunderground v.1.15,2013-02-05 12:45:00,
2013-02-05 06:50:00,15.4,12.7,29.98,SSE,164,5.0,5.0,89,0.00,,,0.00,Wunderground v.1.15,2013-02-05 12:50:00,
2013-02-05 06:55:00,15.5,12.8,29.98,SSE,161,5.0,5.0,89,0.00,,,0.00,Wunderground v.1.15,2013-02-05 12:55:00,
2013-02-05 07:00:00,15.5,12.8,29.98,SSE,164,5.0,5.0,89,0.00,,,0.00,Wunderground v.1.15,2013-02-05 13:00:00,
2013-02-05 07:05:00,15.4,12.7,29.98,SSE,157,4.0,6.0,89,0.00,,,0.00,Wunderground v.1.15,2013-02-05 13:05:00,
2013-02-05 07:15:00,15.5,12.8,29.97,SSE,153,5.0,7.0,89,0.00,,,0.00,Wunderground v.1.15,2013-02-05 13:15:00,
2013-02-05 07:20:00,15.6,13.2,29.98,SE,142,5.0,5.0,90,0.00,,,0.00,Wunderground v.1.15,2013-02-05 13:20:00,
2013-02-05 07:25:00,15.7,13.3,29.98,SSE,155,4.0,6.0,90,0.00,,,0.00,Wunderground v.1.15,2013-02-05 13:25:00,
2013-02-05 07:35:00,16.1,13.7,29.97,SSE,164,5.0,5.0,90,0.00,,,0.00,Wunderground v.1.15,2013-02-05 13:35:00,
2013-02-05 07:40:00,16.3,13.9,29.97,South,169,5.0,5.0,90,0.00,,,0.00,Wunderground v.1.15,2013-02-05 13:40:00,
2013-02-05 07:45:00,16.4,14.0,29.97,SE,146,4.0,5.0,90,0.00,,,0.00,Wunderground v.1.15,2013-02-05 13:45:00,
2013-02-05 07:50:00,16.5,14.1,29.97,SSE,163,3.0,3.0,90,0.00,,,0.00,Wunderground v.1.15,2013-02-05 13:50:00,
2013-02-05 08:00:00,17.1,14.7,29.96,SSE,147,3.0,3.0,90,0.00,,,0.00,Wunderground v.1.15,2013-02-05 14:00:00,
2013-02-05 08:05:00,17.5,15.1,29.97,SE,146,4.0,4.0,90,0.00,,,0.00,Wunderground v.1.15,2013-02-05 14:05:00,
2013-02-05 08:15:00,18.1,15.7,29.97,SSE,147,1.0,3.0,90,0.00,,,0.00,Wunderground v.1.15,2013-02-05 14:15:00,
2013-02-05 08:20:00,18.4,16.0,29.97,SSE,148,0.0,0.0,90,0.00,,,0.00,Wunderground v.1.15,2013-02-05 14:20:00,
2013-02-05 08:25:00,18.6,16.2,29.97,SSE,148,1.0,2.0,90,0.00,,,0.00,Wunderground v.1.15,2013-02-05 14:25:00,
2013-02-05 08:30:00,19.0,16.6,29.97,SSE,148,1.0,1.0,90,0.00,,,0.00,Wunderground v.1.15,2013-02-05 14:30:00,
2013-02-05 08:35:00,19.1,16.7,29.97,SSE,148,1.0,1.0,90,0.00,,,0.00,Wunderground v.1.15,2013-02-05 14:35:00,
2013-02-05 08:45:00,19.5,17.0,29.96,SSE,147,2.0,2.0,90,0.00,,,0.00,Wunderground v.1.15,2013-02-05 14:45:00,
2013-02-05 08:50:00,19.9,17.4,29.95,SE,146,1.0,1.0,90,0.00,,,0.00,Wunderground v.1.15,2013-02-05 14:50:00,
2013-02-05 08:55:00,20.5,18.0,29.95,South,175,1.0,1.0,90,0.00,,,0.00,Wunderground v.1.15,2013-02-05 14:55:00,
2013-02-05 09:00:00,21.0,18.5,29.96,SSW,195,1.0,3.0,90,0.00,,,0.00,Wunderground v.1.15,2013-02-05 15:00:00,
2013-02-05 09:05:00,21.3,18.8,29.96,South,182,1.0,3.0,90,0.00,,,0.00,Wunderground v.1.15,2013-02-05 15:05:00,
2013-02-05 09:15:00,21.8,19.3,29.96,SSW,209,0.0,1.0,90,0.00,,,0.00,Wunderground v.1.15,2013-02-05 15:15:00,
2013-02-05 09:20:00,22.0,19.3,29.95,SSW,206,0.0,0.0,89,0.00,,,0.00,Wunderground v.1.15,2013-02-05 15:20:00,
2013-02-05 09:30:00,22.7,19.9,29.95,SSW,198,1.0,1.0,89,0.00,,,0.00,Wunderground v.1.15,2013-02-05 15:30:00,
2013-02-05 09:35:00,23.0,20.2,29.94,West,279,1.0,6.0,89,0.00,,,0.00,Wunderground v.1.15,2013-02-05 15:35:00,
2013-02-05 09:40:00,23.3,20.5,29.94,SW,232,2.0,2.0,89,0.00,,,0.00,Wunderground v.1.15,2013-02-05 15:40:00,
2013-02-05 09:50:00,23.7,20.9,29.94,SSW,211,2.0,2.0,89,0.00,,,0.00,Wunderground v.1.15,2013-02-05 15:50:00,
2013-02-05 10:00:00,24.0,21.0,29.95,West,277,2.0,2.0,88,0.00,,,0.00,Wunderground v.1.15,2013-02-05 16:00:00,
2013-02-05 10:05:00,24.5,21.7,29.94,WSW,253,2.0,2.0,89,0.00,,,0.00,Wunderground v.1.15,2013-02-05 16:05:00,
2013-02-05 10:15:00,24.9,21.8,29.95,SSW,210,2.0,4.0,88,0.00,,,0.00,Wunderground v.1.15,2013-02-05 16:15:00,
2013-02-05 10:20:00,25.0,21.9,29.95,WSW,245,3.0,7.0,88,0.00,,,0.00,Wunderground v.1.15,2013-02-05 16:20:00,
2013-02-05 10:25:00,25.1,22.0,29.95,SSW,199,3.0,7.0,88,0.00,,,0.00,Wunderground v.1.15,2013-02-05 16:25:00,
2013-02-05 10:30:00,25.2,21.9,29.95,West,280,3.0,4.0,87,0.00,,,0.00,Wunderground v.1.15,2013-02-05 16:30:00,
2013-02-05 10:35:00,25.3,22.0,29.95,NW,308,3.0,4.0,87,0.00,,,0.00,Wunderground v.1.15,2013-02-05 16:35:00,
2013-02-05 10:45:00,25.4,22.1,29.96,SW,226,4.0,5.0,87,0.00,,,0.00,Wunderground v.1.15,2013-02-05 16:45:00,
2013-02-05 10:50:00,25.5,22.2,29.96,West,259,3.0,5.0,87,0.00,,,0.00,Wunderground v.1.15,2013-02-05 16:50:00,
2013-02-05 10:55:00,25.6,22.3,29.96,WSW,253,3.0,5.0,87,0.00,,,0.00,Wunderground v.1.15,2013-02-05 16:55:00,
2013-02-05 11:00:00,25.7,22.4,29.96,WSW,256,3.0,3.0,87,0.00,,,0.00,Wunderground v.1.15,2013-02-05 17:00:00,
2013-02-05 11:05:00,25.9,22.6,29.95,West,280,3.0,9.0,87,0.00,,,0.00,Wunderground v.1.15,2013-02-05 17:05:00,
2013-02-05 11:15:00,26.2,22.9,29.95,SSW,203,3.0,8.0,87,0.00,,,0.00,Wunderground v.1.15,2013-02-05 17:15:00,
2013-02-05 11:20:00,26.6,23.0,29.95,West,266,2.0,2.0,86,0.00,,,0.00,Wunderground v.1.15,2013-02-05 17:20:00,
2013-02-05 11:30:00,27.0,23.4,29.95,South,188,2.0,4.0,86,0.00,,,0.00,Wunderground v.1.15,2013-02-05 17:30:00,
2013-02-05 11:35:00,27.0,23.1,29.95,WSW,248,3.0,4.0,85,0.00,,,0.00,Wunderground v.1.15,2013-02-05 17:35:00,
2013-02-05 11:40:00,27.2,23.3,29.95,SW,217,4.0,5.0,85,0.00,,,0.00,Wunderground v.1.15,2013-02-05 17:40:00,
2013-02-05 11:45:00,27.3,23.4,29.95,West,262,3.0,5.0,85,0.00,,,0.00,Wunderground v.1.15,2013-02-05 17:45:00,
2013-02-05 11:55:00,27.5,23.9,29.95,WNW,292,1.0,2.0,86,0.00,,,0.00,Wunderground v.1.15,2013-02-05 17:55:00,
2013-02-05 12:05:00,27.8,23.9,29.95,SW,236,2.0,5.0,85,0.00,,,0.00,Wunderground v.1.15,2013-02-05 18:05:00,
2013-02-05 12:15:00,27.5,23.6,29.96,West,279,2.0,2.0,85,0.00,,,0.00,Wunderground v.1.15,2013-02-05 18:15:00,
2013-02-05 12:20:00,27.2,23.6,29.95,NW,311,3.0,3.0,86,0.00,,,0.00,Wunderground v.1.15,2013-02-05 18:20:00,
2013-02-05 12:25:00,27.3,23.9,29.96,WNW,295,3.0,5.0,87,0.00,,,0.00,Wunderground v.1.15,2013-02-05 18:25:00,
2013-02-05 12:30:00,27.3,23.9,29.95,West,280,3.0,5.0,87,0.00,,,0.00,Wunderground v.1.15,2013-02-05 18:30:00,
2013-02-05 12:35:00,27.5,24.1,29.95,West,281,4.0,5.0,87,0.00,,,0.00,Wunderground v.1.15,2013-02-05 18:35:00,
2013-02-05 12:45:00,27.6,24.5,29.95,NW,307,3.0,4.0,88,0.00,,,0.00,Wunderground v.1.15,2013-02-05 18:45:00,
2013-02-05 12:50:00,27.7,24.6,29.94,NNW,333,3.0,3.0,88,0.00,,,0.00,Wunderground v.1.15,2013-02-05 18:50:00,
2013-02-05 12:55:00,28.1,25.0,29.95,West,269,2.0,3.0,88,0.00,,,0.00,Wunderground v.1.15,2013-02-05 18:55:00,
2013-02-05 13:05:00,28.3,24.9,29.96,West,268,3.0,3.0,87,0.00,,,0.00,Wunderground v.1.15,2013-02-05 19:05:00,
2013-02-05 13:15:00,28.4,25.0,29.95,West,279,2.0,2.0,87,0.00,,,0.00,Wunderground v.1.15,2013-02-05 19:15:00,
2013-02-05 13:25:00,28.9,25.5,29.96,WNW,290,1.0,2.0,87,0.00,,,0.00,Wunderground v.1.15,2013-02-05 19:25:00,
2013-02-05 13:30:00,28.6,24.9,29.97,WNW,282,2.0,5.0,86,0.00,,,0.00,Wunderground v.1.15,2013-02-05 19:30:00,
2013-02-05 13:35:00,28.4,24.7,29.96,West,267,3.0,5.0,86,0.00,,,0.00,Wunderground v.1.15,2013-02-05 19:35:00,
2013-02-05 13:40:00,28.4,24.7,29.95,NW,323,2.0,2.0,86,0.00,,,0.00,Wunderground v.1.15,2013-02-05 19:40:00,
2013-02-05 13:45:00,28.4,25.0,29.95,WSW,253,1.0,6.0,87,0.00,,,0.00,Wunderground v.1.15,2013-02-05 19:45:00,
2013-02-05 13:50:00,28.4,25.3,29.96,WNW,294,3.0,3.0,88,0.00,,,0.00,Wunderground v.1.15,2013-02-05 19:50:00,
2013-02-05 13:55:00,28.8,26.0,29.96,NW,317,3.0,3.0,89,0.00,,,0.00,Wunderground v.1.15,2013-02-05 19:55:00,
2013-02-05 14:05:00,29.1,26.3,29.96,WNW,294,4.0,4.0,89,0.00,,,0.00,Wunderground v.1.15,2013-02-05 20:05:00,
2013-02-05 14:15:00,29.2,26.4,29.97,NW,315,3.0,3.0,89,0.00,,,0.00,Wunderground v.1.15,2013-02-05 20:15:00,
2013-02-05 14:20:00,29.3,26.5,29.97,NW,319,4.0,4.0,89,0.00,,,0.00,Wunderground v.1.15,2013-02-05 20:20:00,
2013-02-05 14:25:00,29.4,26.3,29.97,West,271,4.0,5.0,88,0.00,,,0.00,Wunderground v.1.15,2013-02-05 20:25:00,
2013-02-05 14:30:00,29.4,26.3,29.97,NW,313,6.0,7.0,88,0.00,,,0.00,Wunderground v.1.15,2013-02-05 20:30:00,
2013-02-05 14:35:00,29.4,26.3,29.98,NNW,336,6.0,7.0,88,0.00,,,0.00,Wunderground v.1.15,2013-02-05 20:35:00,
2013-02-05 14:45:00,29.4,26.3,29.98,NNW,335,7.0,9.0,88,0.00,,,0.00,Wunderground v.1.15,2013-02-05 20:45:00,
2013-02-05 14:50:00,29.5,26.4,29.99,NW,309,6.0,7.0,88,0.00,,,0.00,Wunderground v.1.15,2013-02-05 20:50:00,
2013-02-05 14:55:00,29.4,26.3,30.00,NW,321,6.0,7.0,88,0.00,,,0.00,Wunderground v.1.15,2013-02-05 20:55:00,
2013-02-05 15:00:00,29.5,26.4,30.00,NNW,337,6.0,9.0,88,0.00,,,0.00,Wunderground v.1.15,2013-02-05 21:00:00,
2013-02-05 15:05:00,29.4,26.0,30.00,NNW,345,6.0,9.0,87,0.00,,,0.00,Wunderground v.1.15,2013-02-05 21:05:00,
2013-02-05 15:15:00,29.4,26.0,30.01,NW,315,6.0,9.0,87,0.00,,,0.00,Wunderground v.1.15,2013-02-05 21:15:00,
2013-02-05 15:20:00,29.4,26.0,30.01,NNW,345,7.0,7.0,87,0.00,,,0.00,Wunderground v.1.15,2013-02-05 21:20:00,
2013-02-05 15:25:00,29.3,25.6,30.01,NW,325,8.0,8.0,86,0.00,,,0.00,Wunderground v.1.15,2013-02-05 21:25:00,
2013-02-05 15:30:00,29.3,25.6,30.02,North,360,7.0,7.0,86,0.00,,,0.00,Wunderground v.1.15,2013-02-05 21:30:00,
2013-02-05 15:35:00,29.3,25.6,30.02,NW,314,6.0,9.0,86,0.00,,,0.00,Wunderground v.1.15,2013-02-05 21:35:00,
2013-02-05 15:45:00,29.2,25.5,30.02,NNW,347,7.0,10.0,86,0.00,,,0.00,Wunderground v.1.15,2013-02-05 21:45:00,
2013-02-05 15:50:00,29.2,25.5,30.02,NW,311,7.0,7.0,86,0.00,,,0.00,Wunderground v.1.15,2013-02-05 21:50:00,
2013-02-05 15:55:00,29.2,25.5,30.03,NW,317,7.0,7.0,86,0.00,,,0.00,Wunderground v.1.15,2013-02-05 21:55:00,
2013-02-05 16:00:00,29.2,25.5,30.03,NNW,344,7.0,9.0,86,0.00,,,0.00,Wunderground v.1.15,2013-02-05 22:00:00,
2013-02-05 16:05:00,29.3,25.6,30.04,NNW,331,6.0,9.0,86,0.00,,,0.00,Wunderground v.1.15,2013-02-05 22:05:00,
2013-02-05 16:15:00,29.3,25.6,30.04,NW,313,5.0,6.0,86,0.00,,,0.00,Wunderground v.1.15,2013-02-05 22:15:00,
2013-02-05 16:20:00,29.4,25.7,30.04,NW,322,4.0,7.0,86,0.00,,,0.00,Wunderground v.1.15,2013-02-05 22:20:00,
2013-02-05 16:25:00,29.5,27.5,30.04,NNW,340,4.0,7.0,92,0.00,,,0.00,Wunderground v.1.15,2013-02-05 22:25:00,
2013-02-05 16:30:00,29.5,25.8,30.05,NNW,344,4.0,6.0,86,0.00,,,0.00,Wunderground v.1.15,2013-02-05 22:30:00,
2013-02-05 16:40:00,29.6,25.9,30.05,NNW,342,1.0,1.0,86,0.00,,,0.00,Wunderground v.1.15,2013-02-05 22:40:00,
2013-02-05 16:45:00,29.6,25.9,30.05,NNW,343,0.0,1.0,86,0.00,,,0.00,Wunderground v.1.15,2013-02-05 22:45:00,
2013-02-05 16:50:00,29.6,25.9,30.06,NNW,343,0.0,0.0,86,0.00,,,0.00,Wunderground v.1.15,2013-02-05 22:50:00,
2013-02-05 17:00:00,29.7,26.0,30.06,NNW,343,0.0,0.0,86,0.00,,,0.00,Wunderground v.1.15,2013-02-05 23:00:00,
2013-02-05 17:05:00,29.7,26.0,30.07,NNW,343,0.0,0.0,86,0.00,,,0.00,Wunderground v.1.15,2013-02-05 23:05:00,
2013-02-05 17:15:00,29.8,26.1,30.07,West,259,0.0,0.0,86,0.00,,,0.00,Wunderground v.1.15,2013-02-05 23:15:00,
2013-02-05 17:20:00,29.8,26.1,30.07,West,259,0.0,0.0,86,0.00,,,0.00,Wunderground v.1.15,2013-02-05 23:20:00,
2013-02-05 17:25:00,29.8,26.1,30.08,West,260,0.0,0.0,86,0.00,,,0.00,Wunderground v.1.15,2013-02-05 23:25:00,
2013-02-05 17:30:00,29.8,26.1,30.08,West,267,0.0,0.0,86,0.00,,,0.00,Wunderground v.1.15,2013-02-05 23:30:00,
2013-02-05 17:40:00,29.8,26.1,30.08,NW,311,0.0,0.0,86,0.00,,,0.00,Wunderground v.1.15,2013-02-05 23:40:00,
2013-02-05 17:45:00,29.9,26.2,30.08,NW,317,1.0,1.0,86,0.00,,,0.00,Wunderground v.1.15,2013-02-05 23:45:00,
2013-02-05 17:50:00,30.0,26.3,30.08,NW,317,1.0,1.0,86,0.00,,,0.00,Wunderground v.1.15,2013-02-05 23:50:00,
2013-02-05 17:55:00,30.1,26.4,30.09,West,264,0.0,1.0,86,0.00,,,0.00,Wunderground v.1.15,2013-02-05 23:55:00,
2013-02-05 18:05:00,30.2,26.2,30.09,North,355,1.0,2.0,85,0.00,,,0.00,Wunderground v.1.15,2013-02-06 00:05:00,
2013-02-05 18:15:00,30.2,26.2,30.09,NW,315,0.0,0.0,85,0.00,,,0.00,Wunderground v.1.15,2013-02-06 00:15:00,
2013-02-05 18:20:00,30.2,26.2,30.10,NW,315,0.0,0.0,85,0.00,,,0.00,Wunderground v.1.15,2013-02-06 00:20:00,
2013-02-05 18:25:00,30.2,26.2,30.10,NNW,336,1.0,5.0,85,0.00,,,0.00,Wunderground v.1.15,2013-02-06 00:25:00,
2013-02-05 18:30:00,30.4,26.4,30.11,NW,323,3.0,4.0,85,0.00,,,0.00,Wunderground v.1.15,2013-02-06 00:30:00,
2013-02-05 18:35:00,30.6,26.3,30.11,NNW,335,5.0,5.0,84,0.00,,,0.00,Wunderground v.1.15,2013-02-06 00:35:00,
2013-02-05 18:40:00,30.7,26.1,30.11,NNW,336,4.0,5.0,83,0.00,,,0.00,Wunderground v.1.15,2013-02-06 00:40:00,
2013-02-05 18:50:00,30.7,25.9,30.11,NW,321,4.0,8.0,82,0.00,,,0.00,Wunderground v.1.15,2013-02-06 00:50:00,
2013-02-05 18:55:00,30.7,25.9,30.11,WNW,296,5.0,8.0,82,0.00,,,0.00,Wunderground v.1.15,2013-02-06 00:55:00,
2013-02-05 19:00:00,30.8,25.7,30.11,NW,325,4.0,7.0,81,0.00,,,0.00,Wunderground v.1.15,2013-02-06 01:00:00,
2013-02-05 19:05:00,30.8,25.7,30.12,NNW,327,5.0,10.0,81,0.00,,,0.00,Wunderground v.1.15,2013-02-06 01:05:00,
2013-02-05 19:15:00,30.7,25.6,30.12,NNW,331,5.0,6.0,81,0.00,,,0.00,Wunderground v.1.15,2013-02-06 01:15:00,
2013-02-05 19:20:00,30.7,25.6,30.12,NNW,344,4.0,4.0,81,0.00,,,0.00,Wunderground v.1.15,2013-02-06 01:20:00,
2013-02-05 19:25:00,30.6,25.8,30.13,NNW,327,3.0,4.0,82,0.00,,,0.00,Wunderground v.1.15,2013-02-06 01:25:00,
2013-02-05 19:35:00,30.5,25.7,30.13,NNW,336,3.0,3.0,82,0.00,,,0.00,Wunderground v.1.15,2013-02-06 01:35:00,
2013-02-05 19:40:00,30.5,25.7,30.13,NNW,327,4.0,4.0,82,0.00,,,0.00,Wunderground v.1.15,2013-02-06 01:40:00,
2013-02-05 19:45:00,30.4,25.6,30.14,NNW,346,3.0,5.0,82,0.00,,,0.00,Wunderground v.1.15,2013-02-06 01:45:00,
2013-02-05 19:50:00,30.3,25.5,30.14,North,355,3.0,3.0,82,0.00,,,0.00,Wunderground v.1.15,2013-02-06 01:50:00,
2013-02-05 19:55:00,30.2,25.4,30.14,NNW,329,2.0,3.0,82,0.00,,,0.00,Wunderground v.1.15,2013-02-06 01:55:00,
2013-02-05 20:00:00,30.2,25.4,30.14,NNW,345,1.0,1.0,82,0.00,,,0.00,Wunderground v.1.15,2013-02-06 02:00:00,
2013-02-05 20:05:00,30.1,25.3,30.14,NNW,337,1.0,3.0,82,0.00,,,0.00,Wunderground v.1.15,2013-02-06 02:05:00,
2013-02-05 20:15:00,29.8,25.0,30.14,NNW,342,3.0,5.0,82,0.00,,,0.00,Wunderground v.1.15,2013-02-06 02:15:00,
2013-02-05 20:20:00,29.8,25.0,30.14,NNW,330,4.0,4.0,82,0.00,,,0.00,Wunderground v.1.15,2013-02-06 02:20:00,
2013-02-05 20:30:00,29.7,24.9,30.15,NW,313,3.0,3.0,82,0.00,,,0.00,Wunderground v.1.15,2013-02-06 02:30:00,
2013-02-05 20:40:00,29.5,24.1,30.15,NNW,327,3.0,7.0,80,0.00,,,0.00,Wunderground v.1.15,2013-02-06 02:40:00,
2013-02-05 20:45:00,29.5,24.1,30.16,NNW,333,5.0,7.0,80,0.00,,,0.00,Wunderground v.1.15,2013-02-06 02:45:00,
2013-02-05 20:50:00,29.5,24.1,30.16,NNW,329,4.0,4.0,80,0.00,,,0.00,Wunderground v.1.15,2013-02-06 02:50:00,
2013-02-05 21:00:00,29.4,24.0,30.16,NNW,334,4.0,6.0,80,0.00,,,0.00,Wunderground v.1.15,2013-02-06 03:00:00,
2013-02-05 21:05:00,29.3,23.9,30.16,North,355,4.0,7.0,80,0.00,,,0.00,Wunderground v.1.15,2013-02-06 03:05:00,
2013-02-05 21:15:00,29.0,23.3,30.17,NNW,332,5.0,10.0,79,0.00,,,0.00,Wunderground v.1.15,2013-02-06 03:15:00,
2013-02-05 21:20:00,28.8,22.8,30.17,NW,321,6.0,6.0,78,0.00,,,0.00,Wunderground v.1.15,2013-02-06 03:20:00,
2013-02-05 21:25:00,28.7,22.7,30.18,NW,325,4.0,6.0,78,0.00,,,0.00,Wunderground v.1.15,2013-02-06 03:25:00,
2013-02-05 21:35:00,28.3,22.6,30.18,NNW,335,2.0,3.0,79,0.00,,,0.00,Wunderground v.1.15,2013-02-06 03:35:00,
2013-02-05 21:40:00,28.2,22.2,30.18,NW,319,3.0,3.0,78,0.00,,,0.00,Wunderground v.1.15,2013-02-06 03:40:00,
2013-02-05 21:45:00,28.1,22.4,30.18,NNW,336,4.0,4.0,79,0.00,,,0.00,Wunderground v.1.15,2013-02-06 03:45:00,
2013-02-05 21:50:00,28.1,22.4,30.18,NNW,329,3.0,3.0,79,0.00,,,0.00,Wunderground v.1.15,2013-02-06 03:50:00,
2013-02-05 22:00:00,28.0,22.3,30.19,NNW,327,2.0,2.0,79,0.00,,,0.00,Wunderground v.1.15,2013-02-06 04:00:00,
2013-02-05 22:05:00,27.9,22.2,30.19,NW,326,1.0,2.0,79,0.00,,,0.00,Wunderground v.1.15,2013-02-06 04:05:00,
2013-02-05 22:15:00,27.8,22.1,30.19,NNW,338,1.0,1.0,79,0.00,,,0.00,Wunderground v.1.15,2013-02-06 04:15:00,
2013-02-05 22:20:00,27.8,22.1,30.19,NNW,338,1.0,1.0,79,0.00,,,0.00,Wunderground v.1.15,2013-02-06 04:20:00,
2013-02-05 22:30:00,27.7,22.3,30.20,NNW,338,0.0,0.0,80,0.00,,,0.00,Wunderground v.1.15,2013-02-06 04:30:00,
2013-02-05 22:35:00,27.6,22.2,30.20,NNW,337,0.0,1.0,80,0.00,,,0.00,Wunderground v.1.15,2013-02-06 04:35:00,
2013-02-05 22:40:00,27.5,22.1,30.20,NNW,338,1.0,1.0,80,0.00,,,0.00,Wunderground v.1.15,2013-02-06 04:40:00,
2013-02-05 22:45:00,27.5,22.1,30.21,NNW,338,1.0,1.0,80,0.00,,,0.00,Wunderground v.1.15,2013-02-06 04:45:00,
2013-02-05 22:50:00,27.4,22.0,30.20,NNW,338,0.0,0.0,80,0.00,,,0.00,Wunderground v.1.15,2013-02-06 04:50:00,
2013-02-05 23:00:00,27.3,21.9,30.20,NNW,337,1.0,1.0,80,0.00,,,0.00,Wunderground v.1.15,2013-02-06 05:00:00,
2013-02-05 23:05:00,27.3,21.9,30.20,NNW,336,1.0,1.0,80,0.00,,,0.00,Wunderground v.1.15,2013-02-06 05:05:00,
2013-02-05 23:15:00,27.2,21.8,30.21,NNW,336,0.0,0.0,80,0.00,,,0.00,Wunderground v.1.15,2013-02-06 05:15:00,
2013-02-05 23:20:00,27.2,21.8,30.21,NNW,336,0.0,0.0,80,0.00,,,0.00,Wunderground v.1.15,2013-02-06 05:20:00,
2013-02-05 23:25:00,27.1,22.0,30.21,NNW,336,0.0,0.0,81,0.00,,,0.00,Wunderground v.1.15,2013-02-06 05:25:00,
2013-02-05 23:30:00,27.1,22.0,30.21,NNW,336,0.0,0.0,81,0.00,,,0.00,Wunderground v.1.15,2013-02-06 05:30:00,
2013-02-05 23:35:00,27.0,21.9,30.22,NNW,336,0.0,0.0,81,0.00,,,0.00,Wunderground v.1.15,2013-02-06 05:35:00,
2013-02-05 23:45:00,27.0,21.9,30.23,NNW,336,0.0,0.0,81,0.00,,,0.00,Wunderground v.1.15,2013-02-06 05:45:00,
2013-02-05 23:50:00,27.0,22.2,30.23,NNW,336,0.0,0.0,82,0.00,,,0.00,Wunderground v.1.15,2013-02-06 05:50:00,
2013-02-05 23:55:00,26.9,22.1,30.22,NNW,336,0.0,0.0,82,0.00,,,0.00,Wunderground v.1.15,2013-02-06 05:55:00,